Location: Bethany Fellowship Church
(32.6216°N, 97.3708°W)
Time: 10:23:12
(UTC+00:00)

MOS 1 Rocket - Pass Details

Date: 11 December 2025
Orbit: 609 x 814 km, 97.4° (Epoch: 18 January)

Event Time Altitude Azimuth Distance (km) Brightness Sun altitude
Rises 23:43:09 0° 142° (SE) 3,061 6.5 -4.4°
Reaches altitude 10° 23:45:32 10° 132° (SE) 2,181 5.6 -4.9°
Maximum altitude 23:49:44 31° 71° (ENE) 1,288 4.2 -5.7°
Drops below altitude 10° 23:54:08 10° 11° (N) 2,305 5.7 -6.5°
Sets 23:56:44 0° 1° (N) 3,265 6.5 -7.0°
